[[{"header":{"parameterUnit":"m.s-1","parameterCategory":1,"la1":30.2991,"la2":30.254,"lo1":-89.0895,"lo2":-89.0444,"dy":0.0017,"dx":0.0017,"nx":28,"ny":28,"refTime":"2025-07-08T03:00:00:Z","depth":0,"parameterNumber":2,"parameterNumberName":"U-component_of_WINDS"},"data":[0,0,0,0,0,0,0,0,0,0,0,0,0,0,0,0,0,0,0,0,0,0,0,0,0,0,0,0,0,0,0,0,0,0,0,0,0,0,0,0,0,0,0,0,0,0,0,0,0,0,0,0,0,0,0,0,0,0,3.2562,3.2563,0,3.2697,3.2699,3.27,3.2681,3.2679,3.2677,3.2675,3.2814,3.282,3.2826,0,0,0,0,0,0,0,0,0,0,0,0,0,3.2287,3.2292,3.2562,3.2564,3.2565,3.2697,3.2699,3.2701,3.2682,3.2679,3.2676,3.2674,3.2812,3.2819,3.2826,0,0,0,0,0,0,0,0,0,0,0,0,0,3.2412,3.2294,3.2562,3.2572,3.2574,3.2697,3.2699,3.2701,3.2682,3.2679,3.2676,3.2673,3.281,3.2819,3.2827,3.2948,0,0,3.2854,3.2858,0,0,0,0,0,0,0,0,3.2405,3.2423,3.2569,3.2571,3.2574,3.2669,3.2653,3.2784,3.2683,3.2641,3.2675,3.2671,3.2769,3.2781,3.2813,3.2955,3.2961,3.2855,3.286,3.2864,3.2866,0,0,0,0,0,0,0,3.2397,3.2417,3.2615,3.2571,3.2574,3.2569,3.2583,3.2678,3.2722,3.2645,3.2644,3.266,3.277,3.2805,3.2817,3.2963,3.2854,3.2862,3.2867,3.2871,3.3207,3.3211,0,0,0,0,0,0,3.2385,3.241,3.2611,3.2619,3.248,3.2577,3.2593,3.2642,3.2721,3.273,3.2663,3.2658,3.2792,3.2806,3.2821,3.2966,3.2864,3.2872,3.2877,3.3204,3.3208,3.3212,0,0,0,0,0,0,3.2379,3.2403,3.2606,3.2514,3.254,3.2585,3.2641,3.2646,3.2682,3.2735,3.2743,3.2691,3.279,3.2809,3.2916,3.297,3.2876,3.2884,3.3199,3.3205,3.321,3.3257,0,0,0,0,0,0,3.2372,3.2401,3.2448,3.2515,3.2545,3.2699,3.2644,3.2651,3.2697,3.2693,3.2763,3.2772,3.2789,3.2903,3.2925,3.2981,3.289,3.3195,3.3202,3.3209,3.3251,3.3264,3.3275,0,0,0,0,0,3.2362,3.2457,3.2451,3.2475,3.2604,3.2702,3.2718,3.2736,3.2701,3.2748,3.2782,3.2769,3.2962,3.2914,3.2939,3.2998,3.3191,3.32,3.3208,3.3246,3.3261,3.3274,0,0,0,0,0,0,3.2396,3.2466,3.246,3.258,3.2635,3.2698,3.2758,3.2752,3.2818,3.2812,3.2831,3.2847,3.2954,3.2987,3.2934,3.3118,3.3072,3.3085,3.3092,3.3107,3.3119,3.3108,3.2898,0,0,0,0,0,3.2418,3.2491,3.2548,3.2649,3.2676,3.2713,3.2756,3.2764,3.2822,3.2845,3.2887,3.2944,3.3016,3.3064,3.3134,3.3256,3.327,3.3309,3.3321,3.333,3.3341,3.3405,3.3422,3.324,3.324,3.324,0,0,3.2463,3.251,3.2556,3.2657,3.27,3.2775,3.2732,3.2814,3.2869,3.2858,3.296,3.2993,3.3058,3.3172,3.3224,3.3202,3.3395,3.3341,3.3348,3.3354,3.3415,3.3432,3.3448,3.3245,3.3244,3.3243,0,0,3.2583,3.2627,3.2714,3.2758,3.2824,3.2847,3.2868,3.2932,3.2953,3.3056,3.3048,3.3114,3.324,3.3285,3.3325,3.3459,3.3449,3.3482,3.3543,3.3605,3.3619,3.3632,3.3677,3.3693,3.3493,3.3493,3.3493,0,3.263,3.2743,3.2759,3.2841,3.2884,3.2877,3.2964,3.3006,3.3092,3.3122,3.3097,3.3252,3.3296,3.3418,3.3451,3.3484,3.3507,3.3473,3.3616,3.3629,3.3641,3.3684,3.3701,3.3497,3.3496,3.3496,3.3495,0,3.2797,3.2874,3.2937,3.3018,3.3069,3.3153,3.3181,3.3231,3.3235,3.326,3.3364,3.3416,3.3494,3.3525,3.353,3.3648,3.3632,3.3611,3.3565,3.3661,3.3702,3.3719,3.3501,3.35,3.3499,3.3498,0,0,3.2942,3.303,3.3052,3.3087,3.3159,3.3219,3.3302,3.3379,3.3419,3.3479,3.3547,3.3653,3.3633,3.3678,3.3689,3.3743,3.3843,3.3715,3.3717,3.3735,3.3972,3.3986,3.4005,3.3837,3.3841,3.3843,3.3966,0,3.3066,3.3212,3.3228,3.3358,3.3429,3.3422,3.3494,3.3545,3.3571,3.3634,3.3663,3.3736,3.3706,3.3733,3.3787,3.3819,3.389,3.3811,3.39,3.3903,3.3881,3.4027,3.4041,3.4155,3.3982,3.3985,3.3987,0,3.3231,3.3293,3.3429,3.3488,3.3518,3.3583,3.3652,3.3714,3.3771,3.3786,3.3835,3.3837,3.3922,3.3873,3.3989,3.3934,3.3972,3.3993,3.3998,3.4005,3.3949,3.4035,3.4192,3.4207,3.4013,3.4011,3.4009,0,3.3319,3.3437,3.3533,3.3564,3.3636,3.3681,3.3713,3.3767,3.3811,3.3872,3.39,3.3971,3.401,3.4064,3.4085,3.4048,3.4198,3.4152,3.4211,3.4211,3.4242,3.4239,3.4404,3.4271,3.427,3.427,3.427,0,3.3455,3.3538,3.3573,3.3632,3.3724,3.3742,3.3833,3.3863,3.391,3.3974,3.3974,3.4033,3.4059,3.4123,3.414,3.4231,3.4249,3.4262,3.4265,3.4261,3.4259,3.4284,3.4276,3.4274,3.4273,3.4273,3.4272,0,3.3568,3.3596,3.3699,3.3758,3.3775,3.384,3.389,3.3946,3.3971,3.4051,3.4071,3.411,3.4185,3.4211,3.4303,3.4314,3.4419,3.4417,3.4399,3.4399,3.4456,3.4449,3.464,3.4665,3.4518,3.4519,3.4521,0,3.3652,3.3715,3.378,3.3822,3.3855,3.3924,3.3968,3.3988,3.4034,3.4102,3.415,3.4224,3.4284,3.4403,3.4439,3.4508,3.4506,3.4569,3.4517,3.4509,3.4504,3.4498,3.4503,3.4578,3.4579,3.458,3.4581,0,3.3796,3.3806,3.3869,3.3937,3.3989,3.4044,3.4096,3.4131,3.4159,3.421,3.4285,3.4332,3.4424,3.4496,3.4567,3.46,3.4595,3.4598,3.4614,3.4609,3.4595,3.46,3.4422,3.4593,3.4592,3.4591,3.459,3.459,3.3895,3.395,3.4003,3.4073,3.4114,3.4163,3.4218,3.4248,3.4311,3.4387,3.4395,3.4476,3.4529,3.4623,3.4659,3.4722,3.4705,3.473,3.4736,3.4741,3.4743,3.4587,3.4735,3.4735,3.4735,3.4735,3.4734,0,3.4037,3.407,3.4134,3.4207,3.4261,3.4252,3.4309,3.4355,3.4425,3.4476,3.4534,3.4619,3.4689,3.4731,3.48,3.4843,3.4842,3.486,3.4856,3.4863,3.4756,3.4733,3.4859,3.4859,3.4859,3.4859,3.4859,3.4859,3.4116,3.4207,3.4223,3.4333,3.4366,3.4444,3.4477,3.4522,3.4561,3.4656,3.4714,3.474,3.4786,3.4859,3.4922,3.4932,3.4957,3.4976,3.4984,3.4884,3.4871,3.4858,3.4836,3.4982,3.4982,3.5085,3.5086,3.5087]},{"header":{"parameterUnit":"m.s-1","parameterCategory":1,"la1":30.2991,"la2":30.254,"lo1":-89.0895,"lo2":-89.0444,"dy":0.0017,"dx":0.0017,"nx":28,"ny":28,"refTime":"2025-07-08T03:00:00:Z","depth":0,"parameterNumber":3,"parameterNumberName":"V-component_of_WINDS"},"data":[0,0,0,0,0,0,0,0,0,0,0,0,0,0,0,0,0,0,0,0,0,0,0,0,0,0,0,0,0,0,0,0,0,0,0,0,0,0,0,0,0,0,0,0,0,0,0,0,0,0,0,0,0,0,0,0,0,0,1.5676,1.5676,0,1.5654,1.5653,1.5653,1.5593,1.5591,1.559,1.5589,1.5568,1.5569,1.5569,0,0,0,0,0,0,0,0,0,0,0,0,0,1.5667,1.5667,1.5676,1.5676,1.5675,1.5654,1.5653,1.5653,1.5593,1.5591,1.559,1.5588,1.5568,1.5568,1.5569,0,0,0,0,0,0,0,0,0,0,0,0,0,1.5661,1.5668,1.5676,1.5643,1.5639,1.5654,1.5653,1.5653,1.5593,1.5591,1.5589,1.5588,1.5567,1.5568,1.5569,1.5614,0,0,1.5572,1.5573,0,0,0,0,0,0,0,0,1.5661,1.5661,1.5648,1.5645,1.5641,1.5624,1.5642,1.564,1.5594,1.5611,1.5589,1.5587,1.5588,1.5587,1.5588,1.5613,1.5613,1.5572,1.5573,1.5573,1.5574,0,0,0,0,0,0,0,1.5661,1.5662,1.5667,1.5648,1.5644,1.5629,1.5626,1.5642,1.5611,1.5609,1.5605,1.5603,1.5586,1.5587,1.5587,1.5612,1.5572,1.5573,1.5574,1.5574,1.5673,1.5675,0,0,0,0,0,0,1.5667,1.5662,1.5668,1.5666,1.5647,1.5631,1.5627,1.5632,1.561,1.5605,1.5605,1.56,1.5586,1.5586,1.5586,1.5636,1.5573,1.5574,1.5575,1.5671,1.5673,1.5675,0,0,0,0,0,0,1.5667,1.5668,1.5669,1.5663,1.5662,1.5633,1.5638,1.5632,1.5633,1.5607,1.5601,1.5611,1.5584,1.5584,1.5607,1.5635,1.5575,1.5576,1.5668,1.5671,1.5674,1.5739,0,0,0,0,0,0,1.5667,1.5668,1.5685,1.5664,1.5663,1.5691,1.564,1.5633,1.5634,1.5628,1.5611,1.5607,1.5583,1.5606,1.5608,1.5635,1.5576,1.5666,1.567,1.5673,1.5734,1.5743,1.5752,0,0,0,0,0,1.5666,1.5704,1.5686,1.5687,1.5683,1.5692,1.5692,1.5663,1.5637,1.5653,1.5637,1.5607,1.5631,1.5609,1.5611,1.5638,1.5664,1.5669,1.5673,1.573,1.5742,1.5751,0,0,0,0,0,0,1.573,1.5701,1.568,1.5713,1.5705,1.5682,1.5702,1.5677,1.5677,1.5672,1.5637,1.5633,1.5661,1.5652,1.5628,1.568,1.5643,1.5648,1.5685,1.5696,1.5705,1.5707,1.5577,0,0,0,0,0,1.5748,1.5758,1.5732,1.5763,1.576,1.5732,1.5735,1.5714,1.5705,1.5702,1.5687,1.568,1.5686,1.569,1.5694,1.5732,1.5727,1.5752,1.5761,1.5768,1.5773,1.5791,1.5802,1.569,1.569,1.569,0,0,1.5785,1.577,1.5779,1.5775,1.5767,1.5778,1.573,1.5744,1.5752,1.5704,1.5724,1.5713,1.5703,1.5734,1.5746,1.5727,1.5803,1.5774,1.578,1.5781,1.5797,1.5808,1.5817,1.5693,1.5693,1.5692,0,0,1.5858,1.5848,1.5872,1.5864,1.5852,1.5833,1.5839,1.5819,1.581,1.5829,1.5794,1.5802,1.5814,1.5807,1.5806,1.5875,1.5848,1.5877,1.5924,1.5942,1.5951,1.5958,1.5983,1.5992,1.5882,1.5882,1.5883,0,1.5905,1.592,1.5888,1.5903,1.5903,1.5859,1.5883,1.5877,1.5868,1.5868,1.5847,1.5859,1.5849,1.5877,1.5893,1.5894,1.5899,1.5879,1.5952,1.5959,1.5966,1.5989,1.5998,1.5886,1.5886,1.5885,1.5885,0,1.5979,1.5989,1.601,1.6001,1.6002,1.6023,1.5993,1.5999,1.5977,1.596,1.598,1.5967,1.5967,1.5972,1.5951,1.5997,1.5985,1.5958,1.592,1.5981,1.6002,1.601,1.5891,1.589,1.5889,1.5888,0,0,1.6092,1.6063,1.6071,1.6066,1.6049,1.6057,1.6074,1.6073,1.6079,1.6073,1.6087,1.6097,1.6071,1.607,1.6048,1.6064,1.6119,1.6035,1.6034,1.6051,1.6168,1.6188,1.6198,1.61,1.6102,1.6103,1.6168,0,1.616,1.6188,1.6159,1.6193,1.6202,1.616,1.6176,1.6167,1.6152,1.6157,1.614,1.6147,1.6114,1.6112,1.6126,1.6109,1.6142,1.6104,1.6113,1.6114,1.6117,1.6209,1.6231,1.6293,1.6176,1.6178,1.6179,0,1.6243,1.6241,1.6276,1.6255,1.6258,1.6272,1.6268,1.6274,1.6263,1.6251,1.6248,1.6221,1.6237,1.62,1.6221,1.6196,1.6198,1.619,1.6192,1.6191,1.615,1.6212,1.6312,1.6322,1.6191,1.619,1.6189,0,1.6322,1.6327,1.6348,1.6345,1.6322,1.6333,1.6323,1.631,1.6311,1.6308,1.6309,1.6308,1.6308,1.6308,1.6281,1.6256,1.6306,1.6266,1.6296,1.6297,1.6308,1.6308,1.6411,1.631,1.631,1.631,1.631,0,1.6401,1.6424,1.6383,1.6396,1.642,1.6386,1.6411,1.6398,1.6387,1.6396,1.636,1.637,1.6334,1.6341,1.632,1.6341,1.6341,1.6331,1.6326,1.6334,1.6336,1.6335,1.633,1.6312,1.6312,1.6311,1.6311,0,1.6493,1.6466,1.6486,1.6462,1.6457,1.6476,1.6455,1.6466,1.6448,1.6461,1.6462,1.6433,1.6439,1.6412,1.6413,1.6399,1.643,1.6417,1.6433,1.6429,1.6461,1.6458,1.6567,1.6579,1.6471,1.6472,1.6473,0,1.6545,1.6562,1.6539,1.6542,1.6535,1.6541,1.6541,1.6509,1.6511,1.6499,1.6511,1.6514,1.6514,1.6524,1.6504,1.6504,1.6491,1.6529,1.6491,1.6499,1.6491,1.649,1.6492,1.6537,1.6538,1.654,1.654,0,1.6641,1.6626,1.6628,1.6625,1.6626,1.6623,1.6617,1.6622,1.6586,1.659,1.6595,1.6595,1.6595,1.6598,1.6594,1.6584,1.6557,1.6552,1.6559,1.6569,1.6577,1.6573,1.6455,1.655,1.6549,1.6549,1.6548,1.6548,1.6714,1.6726,1.6711,1.6714,1.6706,1.6701,1.671,1.6692,1.6695,1.6692,1.6673,1.6681,1.6669,1.666,1.6654,1.666,1.6642,1.6652,1.6654,1.6657,1.6663,1.6576,1.6659,1.6659,1.6658,1.6658,1.6658,0,1.6807,1.6795,1.6798,1.679,1.6792,1.6765,1.6757,1.676,1.6768,1.6758,1.6759,1.6764,1.6766,1.6745,1.6745,1.6753,1.6741,1.6754,1.6753,1.6752,1.6679,1.6673,1.6765,1.6765,1.6765,1.6764,1.6764,1.6764,1.6856,1.6874,1.6858,1.6873,1.6861,1.6868,1.6865,1.686,1.6852,1.6859,1.686,1.6847,1.6833,1.6831,1.6831,1.6825,1.6827,1.6845,1.6834,1.6767,1.6757,1.6747,1.6741,1.6845,1.6846,1.6906,1.6907,1.6907]}]]